This is the latest recevied weather packets stored in our database for station/object VK6HGR-1. If no packets are shown the sender has not sent any weather packets the latest 10 day(s).
| Time | Temp. | Humidity | Pressure | Rain* | Wind** | Luminosity | Snow |
|---|---|---|---|---|---|---|---|
| 1777783515 | 18.89° C | 56% | 1022.9 hPa | - | - | - | - |
| 1777782611 | 18.89° C | 57% | 1023.2 hPa | - | - | - | - |
| 1777781712 | 17.78° C | 58% | 1023.5 hPa | - | - | - | - |
| 1777780812 | 17.78° C | 59% | 1023.7 hPa | - | - | - | - |
| 1777779910 | 17.78° C | 59% | 1024 hPa | - | - | - | - |
| 1777779013 | 16.67° C | 60% | 1024.1 hPa | - | - | - | - |
| 1777778114 | 16.67° C | 62% | 1024.2 hPa | - | - | - | - |
| 1777777212 | 16.11° C | 63% | 1024.5 hPa | - | - | - | - |
| 1777776310 | 15.56° C | 63% | 1024.6 hPa | - | - | - | - |
| 1777775411 | 15.56° C | 65% | 1024.6 hPa | - | - | - | - |
| 1777774511 | 15° C | 66% | 1024.6 hPa | - | - | - | - |
| 1777773612 | 14.44° C | 66% | 1024.7 hPa | - | - | - | - |
| 1777772712 | 15° C | 67% | 1024.5 hPa | - | - | - | - |
| 1777771812 | 14.44° C | 68% | 1024.5 hPa | - | - | - | - |
| 1777770911 | 13.89° C | 70% | 1024.5 hPa | - | - | - | - |
| 1777770012 | 13.33° C | 72% | 1024.5 hPa | - | - | - | - |
| 1777769111 | 12.22° C | 73% | 1024.5 hPa | - | - | - | - |
| 1777768213 | 11.11° C | 74% | 1024.5 hPa | - | - | - | - |
| 1777767311 | 10.56° C | 75% | 1024.4 hPa | - | - | - | - |
| 1777766411 | 9.44° C | 73% | 1024.2 hPa | - | - | - | - |
| 1777765513 | 9.44° C | 73% | 1024.1 hPa | - | - | - | - |
| 1777764611 | 9.44° C | 73% | 1023.9 hPa | - | - | - | - |
| 1777763711 | 8.89° C | 72% | 1023.7 hPa | - | - | - | - |
| 1777762811 | 8.89° C | 72% | 1023.5 hPa | - | - | - | - |
| 1777761912 | 8.89° C | 72% | 1023.3 hPa | - | - | - | - |
* Rain since midnight (hover to see other rain measurements)
** Current wind speed in m/s (hover to see current wind gust speed)